This demonstration page uses our WeatherBlox Daily Observations layout. Learn more.

Left ArrowRight Arrow

39.51506, -84.39828

Hourly Observations for January 6, 2015

Temp ( °F °C ) Dew Point ( °F °C ) Humidity (%) Winds ( mph kmh ) Pressure ( in mb ) Visibility ( mi km ) Precip ( " mm )
12:15 am 00:15 Mostly Cloudy with Light Snow 17 -8.3 14 -10 88 88 S 5 7 30.42 1030 1 2 0.01 0.25
12:51 am 00:51 Cloudy with Light Snow 18 -8 14 -10 86 86 SSE 5 7 30.36 1028 1 2 0.02 0.51
12:53 am 00:53 Cloudy with Light Snow 17 -8.3 14 -10 88 88 SSE 5 7 30.34 1028 1 2 0.03 0.76
1:04 am 01:04 Cloudy with Light Snow 17 -8.3 14 -10 88 88 S 5 7 30.36 1028 1 2 0.00 0.03
1:20 am 01:20 Mostly Cloudy with Light Snow 17 -8.3 15 -9.4 92 92 S 3 6 30.36 1028 1 1 0.01 0.25
1:28 am 01:28 Mostly Cloudy with Light Snow 17 -8.3 15 -9.4 92 92 S 3 6 30.36 1028 1 1 0.02 0.51
1:35 am 01:35 Mostly Cloudy with Snow 17 -8.3 15 -9.4 92 92 S 3 6 30.36 1028 1 1 0.03 0.76
1:53 am 01:53 Mostly Cloudy with Snow 17 -8.3 15 -9.4 92 92 Calm 30.33 1027 1 1 0.05 1.27
2:01 am 02:01 Mostly Cloudy with Light Snow 17 -8.3 15 -9.4 92 92 Calm 30.33 1027 1 1 0.00 0.03
2:29 am 02:29 Mostly Cloudy with Light Snow 18 -7.8 15 -9.4 88 88 Calm 30.36 1028 1 1 0.03 0.76
2:46 am 02:46 Mostly Cloudy with Light Snow 18 -7.8 15 -9.4 88 88 Calm 30.36 1028 1 2 0.04 1.02
2:53 am 02:53 Mostly Cloudy with Light Snow 18 -7.8 15 -9.4 88 88 Calm 30.34 1027 1 2 0.04 1.02
3:12 am 03:12 Mostly Cloudy with Light Snow 18 -7.8 14 -10 84 84 Calm 30.33 1027 1 1 0.01 0.25
3:53 am 03:53 Mostly Cloudy with Light Snow 18 -7.8 15 -9.4 88 88 Calm 30.31 1027 1 1 0.04 1.02
4:03 am 04:03 Mostly Cloudy with Light Snow 18 -7.8 14 -10 84 84 ENE 5 7 30.30 1026 1 2 0.01 0.25
4:19 am 04:19 Cloudy with Light Snow 18 -7.8 16 -8.9 92 92 Calm 30.30 1026 1 2 0.01 0.25
4:53 am 04:53 Cloudy with Light Snow 18 -7.8 15 -9.4 88 88 ENE 3 6 30.27 1025 2 2 0.02 0.51
5:22 am 05:22 Cloudy with Light Snow 18 -7.8 15 -9.4 88 88 Calm 30.27 1025 3 5 0.01 0.25
5:31 am 05:31 Cloudy with Light Snow 18 -7.8 14 -10 84 84 E 3 6 30.27 1025 6 10 0.01 0.25
5:53 am 05:53 Cloudy 17 -8.3 15 -9.4 92 92 E 3 6 30.26 1025 8 13 0.01 0.25
6:53 am 06:53 Cloudy with Light Snow 17 -8.3 15 -9.4 92 92 Calm 30.26 1025 3 5 0.00 0.03
7:02 am 07:02 Cloudy with Light Snow 17 -8.3 15 -9.4 92 92 Calm 30.27 1025 3 4 0.00 0.03
7:10 am 07:10 Cloudy with Light Snow 18 -7.8 15 -9.4 88 88 Calm 30.27 1025 3 5 0.00 0.03
7:53 am 07:53 Cloudy with Light Snow 18 -7.8 15 -9.4 88 88 Calm 30.27 1025 3 5 0.00 0.03
8:51 am 08:51 Cloudy with Light Snow 18 -8 16 -9 93 93 Calm 30.30 1026 2 3 0.00 0.03
8:53 am 08:53 Cloudy with Light Snow 18 -7.8 15 -9.4 88 88 Calm 30.29 1026 2 3 0.00 0.03
9:02 am 09:02 Cloudy with Light Snow 18 -7.8 16 -8.9 92 92 Calm 30.30 1026 3 5 0.00 0.03
9:53 am 09:53 Cloudy with Light Snow 19 -7.2 16 -8.9 88 88 Calm 30.31 1026 5 8 0.00 0.03
10:53 am 10:53 Cloudy 20 -6.7 15 -9.4 81 81 W 7 11 30.32 1027 8 13 0.00 0.03
11:40 am 11:40 Cloudy 20 -6.7 15 -9.4 81 81 W 9 15 30.33 1027 10 16 0.00 0.00
11:53 am 11:53 Mostly Cloudy 20 -6.7 14 -10 78 78 WNW 7 11 30.32 1027 10 16 0.00 0.00
12:53 pm 12:53 Cloudy 20 -6.7 13 -10.6 74 74 NW 9 15 30.32 1027 10 16 0.00 0.00
1:53 pm 13:53 Mostly Cloudy 19 -7.2 11 -11.7 71 71 WNW 8 13 30.30 1026 10 16 0.00 0.00
2:53 pm 14:53 Mostly Cloudy 19 -7.2 11 -11.7 71 71 W 8 13 30.30 1026 10 16 0.00 0.00
3:26 pm 15:26 Partly Cloudy 19 -7.2 11 -11.7 71 71 WNW 9 15 30.33 1027 10 16 0.00 0.00
3:53 pm 15:53 Sunny 19 -7.2 11 -11.7 71 71 W 9 15 30.31 1026 10 16 0.00 0.00
4:53 pm 16:53 Sunny 18 -7.8 10 -12.2 71 71 W 10 17 30.31 1026 10 16 0.00 0.00
5:53 pm 17:53 Clear 17 -8.3 8 -13.3 68 68 W 13 20 30.31 1026 10 16 0.00 0.00
6:53 pm 18:53 Clear 15 -9.4 7 -13.9 70 70 W 10 17 30.32 1027 10 16 0.00 0.00
7:53 pm 19:53 Clear 14 -10 8 -13.3 77 77 W 9 15 30.32 1027 10 16 0.00 0.00
8:53 pm 20:53 Clear 14 -10 6 -14.4 71 71 W 13 20 30.32 1027 10 16 0.00 0.00
9:53 pm 21:53 Clear 13 -10.6 6 -14.4 74 74 W 12 19 30.30 1026 10 16 0.00 0.00
10:53 pm 22:53 Mostly Cloudy 13 -10.6 5 -15 70 70 W 14 22 30.28 1026 10 16 0.00 0.00
11:53 pm 23:53 Partly Cloudy 13 -10.6 5 -15 70 70 W 16 26 30.27 1025 10 16 0.00 0.00

Powered by AerisWeather